Change the Weather History Date:

Thursday, June 20, 2013

  Actual Average Record
Temperature  
Mean Temperature 79 °F -  
Max Temperature 86 °F 85 °F 92 °F (2007)
Min Temperature 72 °F 71 °F 62 °F (1999)
Cooling Degree Days 14    
Growing Degree Days 29 (Base 50)    
Moisture  
Dew Point 78 °F    
Average Humidity 93    
Maximum Humidity 100    
Minimum Humidity 62    
Precipitation  
Precipitation 0.02 in - - ()
Sea Level Pressure  
Sea Level Pressure 30.06 in    
Wind  
Wind Speed 5 mph (East)    
Max Wind Speed 14 mph    
Max Gust Speed 16 mph    
Visibility 9 miles    
Events Rain , Thunderstorm    
Averages and records for this station are not official NWS values.
T = Trace of Precipitation, MM = Missing Value Source: NWS Daily Summary

Daily Weather History Graph

Daily Weather History Graph

Search for Another Location

Airport or City:

Trip Planner

Search our weather history database for the weather conditions in past years. The results will help you decide how hot, cold, wet, or windy it might be!

Date:

Astronomy

Jun. 20, 2013 Rise Set
Actual Time 5:44 AM CDT 7:51 PM CDT
Civil Twilight 5:17 AM CDT 8:19 PM CDT
Nautical Twilight 4:43 AM CDT 8:53 PM CDT
Astronomical Twilight 4:07 AM CDT 9:29 PM CDT
Moon 5:00 PM CDT (6/20) 3:02 AM CDT (6/20)
Length of Visible Light 15h 02m
Length of Day
14h 06m
Waxing Gibbous, 89% of the Moon is Illuminated
Jun 20
Waxing Gibbous
Jun 23
Full
Jun 29
Last Quarter
Jul 8
New
Jul 15
First Quarter

Hourly Weather History & Observations

Time (CDT) Temp. Heat Index Dew Point Humidity Pressure Visibility Wind Dir Wind Speed Gust Speed Precip Events Conditions
12:58 AM 74.1 °F - 74.1 °F 100% 30.03 in 10.0 mi North 3.5 mph - N/A   Clear
1:58 AM 74.7 °F - 74.7 °F 100% 30.01 in 10.0 mi Calm Calm - N/A   Clear
2:58 AM 73.4 °F - 73.4 °F 100% 30.01 in 10.0 mi North 4.6 mph - N/A   Mostly Cloudy
3:58 AM 73.4 °F - 73.4 °F 100% 30.02 in 10.0 mi NNE 3.5 mph - N/A   Clear
4:58 AM 73.8 °F - 73.8 °F 100% 30.03 in 10.0 mi North 5.8 mph - N/A   Partly Cloudy
5:58 AM 72.5 °F - 72.5 °F 100% 30.04 in 10.0 mi NNE 3.5 mph - N/A   Clear
6:03 AM 73.4 °F - 73.4 °F 100% 30.03 in 10.0 mi NNE 3.5 mph - N/A Rain Light Rain
6:13 AM 73.4 °F - 73.4 °F 100% 30.04 in 10.0 mi NE 2.3 mph - N/A   Clear
6:56 AM 75.2 °F - 71.6 °F 89% 30.06 in 10.0 mi North 3.5 mph - N/A   Clear
6:58 AM 75.0 °F - 75.0 °F 100% 30.06 in 10.0 mi North 3.5 mph - 0.00 in   Clear
7:55 AM 80.6 °F 84.6 °F 71.6 °F 74% 30.07 in 10.0 mi NNE 4.6 mph - N/A   Clear
8:55 AM 82.4 °F 88.2 °F 73.4 °F 74% 30.09 in 10.0 mi ENE 6.9 mph - N/A   Clear
9:31 AM 84.2 °F 103.5 °F 84.2 °F 100% 30.09 in 10.0 mi East 5.8 mph - N/A   Mostly Cloudy
9:50 AM 82.4 °F 96.1 °F 82.4 °F 100% 30.09 in 10.0 mi NE 4.6 mph - N/A   Scattered Clouds
9:55 AM 84.2 °F 103.5 °F 84.2 °F 100% 30.08 in 10.0 mi NNE 3.5 mph - N/A   Mostly Cloudy
9:57 AM 84.2 °F 103.5 °F 84.2 °F 100% 30.08 in 10.0 mi NNE 2.3 mph - N/A   Mostly Cloudy
9:59 AM 86.0 °F 93.4 °F 73.4 °F 66% 30.07 in 7.0 mi Calm Calm - N/A   Mostly Cloudy
10:02 AM 84.2 °F 103.5 °F 84.2 °F 100% 30.08 in 10.0 mi East 3.5 mph - N/A   Mostly Cloudy
10:03 AM 84.2 °F 103.5 °F 84.2 °F 100% 30.09 in 10.0 mi Variable 2.3 mph - N/A   Mostly Cloudy
10:09 AM 84.2 °F 103.5 °F 84.2 °F 100% 30.09 in 10.0 mi NE 3.5 mph - N/A   Mostly Cloudy
10:21 AM 84.2 °F 103.5 °F 84.2 °F 100% 30.09 in 10.0 mi ENE 5.8 mph - N/A   Overcast
10:52 AM 84.2 °F 103.5 °F 84.2 °F 100% 30.09 in 10.0 mi SSE 9.2 mph - N/A   Scattered Clouds
10:55 AM 84.2 °F 90.9 °F 73.4 °F 70% 30.10 in 10.0 mi SSE 9.2 mph - N/A   Mostly Cloudy
11:21 AM 84.2 °F 103.5 °F 84.2 °F 100% 30.09 in 10.0 mi South 10.4 mph - N/A   Mostly Cloudy
11:48 AM 82.4 °F 96.1 °F 82.4 °F 100% 30.09 in 10.0 mi South 6.9 mph - N/A   Light Drizzle
11:55 AM 82.4 °F 87.2 °F 71.6 °F 70% 30.09 in 10.0 mi South 8.1 mph - N/A   Mostly Cloudy
11:56 AM 82.4 °F 96.1 °F 82.4 °F 100% 30.09 in 10.0 mi South 8.1 mph - N/A   Overcast
12:08 PM 82.4 °F 96.1 °F 82.4 °F 100% 30.08 in 10.0 mi South 9.2 mph - N/A   Mostly Cloudy
12:55 PM 84.2 °F 90.9 °F 73.4 °F 70% 30.09 in 10.0 mi SSE 8.1 mph - N/A   Mostly Cloudy
1:55 PM 84.2 °F 90.9 °F 73.4 °F 70% 30.06 in 10.0 mi South 10.4 mph - N/A   Scattered Clouds
2:55 PM 86.0 °F 111.5 °F 86.0 °F 100% 30.05 in 10.0 mi South 9.2 mph - N/A   Partly Cloudy
2:59 PM 84.2 °F 89.6 °F 71.6 °F 66% 30.06 in 10.0 mi South 9.2 mph - N/A   Mostly Cloudy
3:55 PM 86.0 °F 111.5 °F 86.0 °F 100% 30.05 in 10.0 mi Variable 2.3 mph - N/A   Partly Cloudy
3:59 PM 86.0 °F 91.8 °F 71.6 °F 62% 30.05 in 10.0 mi ESE 4.6 mph - N/A Thunderstorm Thunderstorm
4:02 PM 86.0 °F 111.5 °F 86.0 °F 100% 30.04 in 10.0 mi NE 8.1 mph - N/A   Mostly Cloudy
4:08 PM 84.2 °F 103.5 °F 84.2 °F 100% 30.04 in 1.8 mi ENE 6.9 mph 16.1 mph N/A   Mostly Cloudy
4:09 PM 84.2 °F 103.5 °F 84.2 °F 100% 30.04 in 1.2 mi ENE 4.6 mph 16.1 mph N/A   Mostly Cloudy
4:17 PM 82.4 °F 96.1 °F 82.4 °F 100% 30.04 in 2.5 mi South 4.6 mph - N/A Rain , Thunderstorm Heavy Thunderstorms and Rain
4:23 PM 82.4 °F 96.1 °F 82.4 °F 100% 30.04 in 5.0 mi Variable 2.3 mph - N/A Rain , Thunderstorm Light Rain
4:40 PM 80.6 °F 89.3 °F 80.6 °F 100% 30.04 in 5.0 mi West 3.5 mph - N/A Rain , Thunderstorm Light Thunderstorms and Rain
5:59 PM 78.8 °F - 78.8 °F 100% 30.04 in 10.0 mi WNW 3.5 mph - 0.02 in   Mostly Cloudy
6:59 PM 78.8 °F - 78.8 °F 100% 30.04 in 10.0 mi NNE 5.8 mph - N/A   Mostly Cloudy
7:55 PM 77.0 °F - 73.4 °F 89% 30.07 in 10.0 mi NNE 4.6 mph - N/A   Mostly Cloudy
8:38 PM 77.0 °F - 73.4 °F 89% 30.07 in 10.0 mi ESE 5.8 mph - N/A Thunderstorm Thunderstorm
8:58 PM 77.0 °F - 75.2 °F 94% 30.08 in 10.0 mi ESE 13.8 mph - N/A Thunderstorm Thunderstorm
9:55 PM 78.8 °F - 77.0 °F 94% 30.08 in 10.0 mi SSE 6.9 mph - N/A   Mostly Cloudy
10:55 PM 78.8 °F - 78.8 °F 100% 30.07 in 10.0 mi South 1.2 mph - N/A   Scattered Clouds